Tracking 35237 objects as of 5-Sep-2026
HD Live streaming from Space Station
objects crossing your sky now

FREGAT DEB


FREGAT DEB is no longer on orbit


NORAD ID: 45923
Int'l Code: 2011-037EM
Launch date: July 18, 2011
Source: Commonwealth of Independent States (former USSR) (CIS)
Launch site: TYURATAM MISSILE AND SPACE COMPLEX (TTMTR)
Decay date: 2022-03-15

Note: This is SATELLITE DEBRIS
Your satellite tracking list
Your tracking list is empty




NASA's NSSDC Master Catalog

Two Line Element Set (TLE):
1 45923U 11037EM  22064.83887541  .02473617  00000-0  55850-1 0  9997
2 45923  51.4629 106.8265 0219609 161.8558 199.0411 15.18128346 77379
Source of the keplerian elements: AFSPC